TimeMST,TemperatureF,Dew PointF,Humidity,Sea Level PressureIn,VisibilityMPH,Wind Direction,Wind SpeedMPH,Gust SpeedMPH,PrecipitationIn,Events,Conditions,WindDirDegrees,DateUTC
12:55 AM,28.0,17.1,63,30.11,10.0,West,11.5,-,N/A,,Clear,280,2012-01-09 07:55:00
1:55 AM,28.0,17.1,63,30.12,10.0,West,9.2,-,N/A,,Clear,270,2012-01-09 08:55:00
2:55 AM,26.1,17.1,69,30.12,10.0,West,11.5,-,N/A,,Clear,270,2012-01-09 09:55:00
3:55 AM,25.0,17.1,72,30.13,10.0,West,9.2,-,N/A,,Clear,260,2012-01-09 10:55:00
4:55 AM,27.0,18.0,69,30.13,10.0,West,11.5,-,N/A,,Clear,260,2012-01-09 11:55:00
5:55 AM,28.0,19.9,72,30.15,10.0,West,10.4,-,N/A,,Clear,260,2012-01-09 12:55:00
6:55 AM,30.0,21.9,72,30.15,10.0,West,11.5,-,N/A,,Clear,260,2012-01-09 13:55:00
7:55 AM,30.0,21.9,72,30.16,10.0,West,10.4,-,N/A,,Clear,260,2012-01-09 14:55:00
10:55 AM,50.0,26.1,39,30.12,10.0,West,11.5,-,N/A,,Clear,260,2012-01-09 17:55:00
11:55 AM,55.9,28.0,34,30.08,10.0,WNW,16.1,21.9,N/A,,Clear,300,2012-01-09 18:55:00
12:55 PM,57.0,28.9,34,30.06,10.0,WNW,15.0,-,N/A,,Clear,290,2012-01-09 19:55:00
1:55 PM,59.0,28.9,32,30.04,10.0,NW,16.1,-,N/A,,Clear,310,2012-01-09 20:55:00
2:55 PM,59.0,28.0,31,30.04,10.0,WNW,17.3,21.9,N/A,,Clear,300,2012-01-09 21:55:00
3:55 PM,54.0,28.0,37,30.05,10.0,WNW,8.1,-,N/A,,Clear,300,2012-01-09 22:55:00
4:55 PM,46.9,27.0,46,30.07,10.0,West,3.5,-,N/A,,Clear,270,2012-01-09 23:55:00
5:55 PM,41.0,25.0,53,30.06,10.0,West,5.8,-,N/A,,Clear,260,2012-01-10 00:55:00
6:55 PM,37.9,25.0,60,30.06,10.0,West,8.1,-,N/A,,Clear,280,2012-01-10 01:55:00
7:55 PM,37.0,25.0,62,30.06,10.0,West,10.4,-,N/A,,Clear,270,2012-01-10 02:55:00
8:55 PM,33.1,24.1,70,30.05,10.0,West,8.1,-,N/A,,Clear,280,2012-01-10 03:55:00
9:55 PM,33.1,24.1,70,30.03,10.0,West,9.2,-,N/A,,Clear,280,2012-01-10 04:55:00
10:55 PM,35.1,25.0,67,30.03,10.0,West,9.2,-,N/A,,Clear,280,2012-01-10 05:55:00
11:55 PM,36.0,25.0,64,30.01,10.0,West,10.4,-,N/A,,Clear,270,2012-01-10 06:55:00